NSS-6                   
1 27603U 02057A   19265.48870833 -.00000205  00000-0  00000+0 0  9993
2 27603   0.0717 277.7060 0006010 277.0032 255.4980  1.00272031 61424
ARIANE 44L R/B          
1 27604U 02057B   19264.00034194  .00000502  00000-0  43291-3 0  9995
2 27604   7.1456 258.7608 7177261  73.2426 349.2540  2.38440751139740